TimeCST,TemperatureF,Dew PointF,Humidity,Sea Level PressureIn,VisibilityMPH,Wind Direction,Wind SpeedMPH,Gust SpeedMPH,PrecipitationIn,Events,Conditions,WindDirDegrees,DateUTC
12:15 AM,35.6,32.0,87,30.31,10.0,North,3.5,-,N/A,,Clear,10,2013-02-09 06:15:00
12:55 AM,32.0,32.0,100,30.30,7.0,North,3.5,-,N/A,,Clear,10,2013-02-09 06:55:00
1:15 AM,33.8,32.0,93,30.31,7.0,North,4.6,-,N/A,,Clear,350,2013-02-09 07:15:00
1:35 AM,33.8,32.0,93,30.31,7.0,North,3.5,-,N/A,,Clear,350,2013-02-09 07:35:00
1:55 AM,32.0,32.0,100,30.30,7.0,North,4.6,-,N/A,,Clear,360,2013-02-09 07:55:00
2:15 AM,33.8,32.0,93,30.31,7.0,North,3.5,-,N/A,,Clear,360,2013-02-09 08:15:00
2:35 AM,32.0,32.0,100,30.31,5.0,NNE,4.6,-,N/A,,Clear,20,2013-02-09 08:35:00
2:55 AM,33.8,32.0,93,30.31,5.0,NNE,3.5,-,N/A,,Clear,20,2013-02-09 08:55:00
3:15 AM,32.0,32.0,100,30.31,5.0,NNE,4.6,-,N/A,,Clear,20,2013-02-09 09:15:00
3:35 AM,32.0,32.0,100,30.32,5.0,North,5.8,-,N/A,,Clear,10,2013-02-09 09:35:00
3:55 AM,32.0,32.0,100,30.32,5.0,North,5.8,-,N/A,,Clear,10,2013-02-09 09:55:00
4:15 AM,32.0,32.0,100,30.33,5.0,North,6.9,-,N/A,,Clear,10,2013-02-09 10:15:00
4:35 AM,32.0,32.0,100,30.33,7.0,NNE,6.9,-,N/A,,Clear,20,2013-02-09 10:35:00
4:55 AM,32.0,32.0,100,30.33,5.0,NE,4.6,-,N/A,,Clear,40,2013-02-09 10:55:00
5:15 AM,32.0,32.0,100,30.32,5.0,NE,8.1,-,N/A,,Clear,40,2013-02-09 11:15:00
5:35 AM,32.0,32.0,100,30.31,7.0,NE,6.9,-,N/A,,Clear,40,2013-02-09 11:35:00
5:55 AM,32.0,32.0,100,30.31,7.0,NE,6.9,-,N/A,,Clear,50,2013-02-09 11:55:00
6:15 AM,32.0,32.0,100,30.31,7.0,NE,8.1,-,N/A,,Clear,50,2013-02-09 12:15:00
6:35 AM,32.0,32.0,100,30.31,7.0,NE,8.1,-,N/A,,Clear,50,2013-02-09 12:35:00
6:55 AM,32.0,32.0,100,30.32,10.0,NE,6.9,-,N/A,,Clear,50,2013-02-09 12:55:00
7:15 AM,32.0,32.0,100,30.32,7.0,NE,8.1,-,N/A,,Clear,50,2013-02-09 13:15:00
7:35 AM,33.8,32.0,93,30.32,10.0,NE,8.1,-,N/A,,Clear,50,2013-02-09 13:35:00
7:55 AM,33.8,32.0,93,30.32,10.0,NE,6.9,-,N/A,,Clear,50,2013-02-09 13:55:00
8:15 AM,33.8,32.0,93,30.33,10.0,NE,6.9,-,N/A,,Clear,40,2013-02-09 14:15:00
8:35 AM,33.8,32.0,93,30.33,10.0,NE,8.1,-,N/A,,Clear,40,2013-02-09 14:35:00
8:55 AM,35.6,32.0,87,30.32,10.0,ENE,10.4,-,N/A,,Clear,60,2013-02-09 14:55:00
9:15 AM,37.4,32.0,81,30.32,10.0,ENE,9.2,-,N/A,,Clear,60,2013-02-09 15:15:00
9:35 AM,37.4,32.0,81,30.33,10.0,ENE,5.8,-,N/A,,Clear,60,2013-02-09 15:35:00
9:55 AM,41.0,33.8,76,30.33,10.0,East,10.4,-,N/A,,Clear,90,2013-02-09 15:55:00
10:15 AM,41.0,32.0,70,30.33,10.0,East,9.2,-,N/A,,Clear,100,2013-02-09 16:15:00
10:35 AM,41.0,33.8,76,30.32,10.0,ESE,8.1,-,N/A,,Clear,120,2013-02-09 16:35:00
10:55 AM,42.8,33.8,70,30.31,10.0,ENE,5.8,-,N/A,,Clear,70,2013-02-09 16:55:00
11:15 AM,42.8,33.8,70,30.30,10.0,East,8.1,-,N/A,,Clear,90,2013-02-09 17:15:00
11:35 AM,42.8,33.8,70,30.29,10.0,East,5.8,-,N/A,,Clear,80,2013-02-09 17:35:00
11:55 AM,44.6,33.8,66,30.29,10.0,Calm,Calm,-,N/A,,Clear,0,2013-02-09 17:55:00
12:15 PM,44.6,35.6,71,30.28,10.0,Calm,Calm,-,N/A,,Clear,0,2013-02-09 18:15:00
12:35 PM,46.4,33.8,62,30.26,10.0,Calm,Calm,-,N/A,,Clear,0,2013-02-09 18:35:00
12:55 PM,46.4,35.6,66,30.24,10.0,Calm,Calm,-,N/A,,Clear,0,2013-02-09 18:55:00
1:35 PM,48.2,35.6,62,30.21,10.0,ENE,3.5,-,N/A,,Clear,60,2013-02-09 19:35:00
1:55 PM,48.2,35.6,62,30.19,10.0,Calm,Calm,-,N/A,,Clear,0,2013-02-09 19:55:00
2:15 PM,50.0,35.6,58,30.18,10.0,NNE,4.6,-,N/A,,Clear,30,2013-02-09 20:15:00
2:35 PM,48.2,35.6,62,30.19,10.0,North,3.5,-,N/A,,Clear,360,2013-02-09 20:35:00
2:55 PM,50.0,35.6,58,30.18,10.0,North,3.5,-,N/A,,Clear,360,2013-02-09 20:55:00
3:15 PM,50.0,37.4,62,30.16,10.0,North,5.8,-,N/A,,Clear,10,2013-02-09 21:15:00
3:35 PM,50.0,37.4,62,30.15,10.0,Calm,Calm,-,N/A,,Clear,0,2013-02-09 21:35:00
3:55 PM,51.8,37.4,58,30.13,10.0,ENE,9.2,-,N/A,,Clear,70,2013-02-09 21:55:00
4:15 PM,51.8,37.4,58,30.13,10.0,East,6.9,-,N/A,,Clear,80,2013-02-09 22:15:00
4:35 PM,51.8,37.4,58,30.12,10.0,East,5.8,-,N/A,,Clear,80,2013-02-09 22:35:00
4:55 PM,51.8,37.4,58,30.11,10.0,East,4.6,-,N/A,,Clear,90,2013-02-09 22:55:00
5:15 PM,51.8,37.4,58,30.11,10.0,East,4.6,-,N/A,,Clear,100,2013-02-09 23:15:00
5:35 PM,50.0,37.4,62,30.12,10.0,ESE,3.5,-,N/A,,Clear,110,2013-02-09 23:35:00
5:55 PM,50.0,37.4,62,30.13,10.0,Calm,Calm,-,N/A,,Clear,0,2013-02-09 23:55:00
6:15 PM,50.0,37.4,62,30.12,10.0,ESE,3.5,-,N/A,,Clear,120,2013-02-10 00:15:00
6:35 PM,48.2,39.2,71,30.12,10.0,East,3.5,-,N/A,,Scattered Clouds,100,2013-02-10 00:35:00
6:55 PM,50.0,41.0,71,30.11,10.0,East,3.5,-,N/A,,Mostly Cloudy,80,2013-02-10 00:55:00
7:15 PM,48.2,41.0,76,30.11,10.0,East,3.5,-,N/A,,Scattered Clouds,90,2013-02-10 01:15:00
7:35 PM,50.0,37.4,62,30.10,10.0,East,4.6,-,N/A,,Clear,90,2013-02-10 01:35:00
7:55 PM,50.0,37.4,62,30.10,10.0,East,4.6,-,N/A,,Scattered Clouds,90,2013-02-10 01:55:00
8:15 PM,50.0,37.4,62,30.10,10.0,ESE,5.8,-,N/A,,Scattered Clouds,110,2013-02-10 02:15:00
8:35 PM,50.0,37.4,62,30.10,10.0,ESE,5.8,-,N/A,,Scattered Clouds,120,2013-02-10 02:35:00
8:55 PM,50.0,37.4,62,30.08,10.0,ESE,8.1,-,N/A,Rain,Light Rain,110,2013-02-10 02:55:00
9:15 PM,50.0,37.4,62,30.11,10.0,SE,8.1,-,N/A,,Clear,140,2013-02-10 03:15:00
9:35 PM,50.0,37.4,62,30.10,10.0,SE,6.9,-,N/A,,Clear,130,2013-02-10 03:35:00
9:55 PM,50.0,37.4,62,30.08,10.0,SE,5.8,-,N/A,,Clear,130,2013-02-10 03:55:00
10:15 PM,50.0,37.4,62,30.08,10.0,ESE,8.1,-,N/A,,Clear,120,2013-02-10 04:15:00
10:35 PM,50.0,37.4,62,30.05,10.0,ESE,8.1,-,N/A,,Clear,110,2013-02-10 04:35:00
10:55 PM,50.0,37.4,62,30.07,10.0,SE,6.9,-,N/A,,Clear,130,2013-02-10 04:55:00
11:15 PM,51.8,37.4,58,30.06,10.0,SE,10.4,-,N/A,,Scattered Clouds,140,2013-02-10 05:15:00
11:35 PM,51.8,37.4,58,30.06,10.0,SE,11.5,-,N/A,,Clear,140,2013-02-10 05:35:00
11:55 PM,51.8,37.4,58,30.05,10.0,SSE,12.7,-,N/A,,Mostly Cloudy,150,2013-02-10 05:55:00